This is the latest recevied weather packets stored in our database for station/object JE4YKI-13. If no packets are shown the sender has not sent any weather packets the latest 1 day(s).
| Time | Temp. | Humidity | Pressure | Rain* | Wind** | Luminosity | Snow |
|---|---|---|---|---|---|---|---|
| 1778056866 | 21.11° C | 54% | 1015.5 hPa | 0 mm | - | - | - |
| 1778056266 | 21.67° C | 53% | 1015.7 hPa | 0 mm | - | - | - |
| 1778055065 | 21.67° C | 54% | 1015.6 hPa | 0 mm | - | - | - |
| 1778054464 | 21.67° C | 54% | 1015.7 hPa | 0 mm | - | - | - |
| 1778053864 | 21.67° C | 53% | 1015.7 hPa | 0 mm | - | - | - |
| 1778052663 | 21.67° C | 52% | 1015.8 hPa | 0 mm | - | - | - |
| 1778050862 | 22.78° C | 50% | 1015.6 hPa | 0 mm | - | - | - |
| 1778049061 | 22.22° C | 50% | 1015.8 hPa | 0 mm | - | - | - |
| 1778048460 | 22.22° C | 50% | 1015.8 hPa | 0 mm | - | - | - |
| 1778047259 | 21.67° C | 51% | 1015.9 hPa | 0 mm | - | - | - |
| 1778046659 | 22.22° C | 50% | 1016.1 hPa | 0 mm | - | - | - |
| 1778046058 | 22.22° C | 50% | 1016.1 hPa | 0 mm | - | - | - |
| 1778045458 | 21.67° C | 51% | 1016.2 hPa | 0 mm | - | - | - |
| 1778044857 | 22.22° C | 49% | 1016.2 hPa | 0 mm | - | - | - |
| 1778043056 | 22.78° C | 49% | 1016.6 hPa | 0 mm | - | - | - |
| 1778042456 | 22.78° C | 48% | 1016.5 hPa | 0 mm | - | - | - |
| 1778041855 | 22.78° C | 48% | 1016.6 hPa | 0 mm | - | - | - |
| 1778041256 | 22.22° C | 49% | 1016.9 hPa | 0 mm | - | - | - |
| 1778040654 | 21.67° C | 51% | 1017.3 hPa | 0 mm | - | - | - |
| 1778039453 | 21.11° C | 52% | 1017.5 hPa | 0 mm | - | - | - |
| 1778038853 | 20.56° C | 53% | 1017.4 hPa | 0 mm | - | - | - |
| 1778038253 | 20.56° C | 53% | 1017.7 hPa | 0 mm | - | - | - |
| 1778037652 | 20.56° C | 53% | 1018 hPa | 0 mm | - | - | - |
| 1778037052 | 20.56° C | 53% | 1017.8 hPa | 0 mm | - | - | - |
| 1778036451 | 20.56° C | 52% | 1018.3 hPa | 0 mm | - | - | - |
* Rain latest hour (hover to see other rain measurements)
** Current wind speed in m/s (hover to see current wind gust speed)